Simultaneous Nadir Overpasses (SNOs) Predictions

Prediction of SNOs between GOES-15 and METOP-B Satellite Orbit:

Table of predicted SNOs for the next 14.0 days since TLE Epoch: 2/17/2024
Index Date Time (GOES-15) GOES-15 Lat,Lon METOP-B Lat,Lon Distance(km) Time Diff (sec)
1 02/17/2024 05:06:56 0.01, 61.42 -0.74, 64.86 391.02 80
2 02/18/2024 17:25:58 -0.01, 61.40 -0.28, 60.24 131.77 80
3 02/19/2024 17:02:40 -0.01, 61.39 0.81, 65.23 436.69 80
4 02/21/2024 05:21:34 0.01, 61.40 0.16, 60.64 85.66 80
5 02/22/2024 05:03:36 0.02, 61.39 -0.94, 65.63 483.64 80
6 02/23/2024 17:22:38 -0.02, 61.36 -0.07, 61.01 38.48 80
7 02/26/2024 05:20:53 0.03, 61.37 -0.02, 61.42 7.64 80
8 02/28/2024 17:16:36 -0.03, 61.32 0.07, 61.80 54.47 80
9 03/01/2024 05:35:29 0.02, 61.36 0.94, 57.22 470.92 80
